This is the latest recevied weather packets stored in our database for station/object KI5NXU. If no packets are shown the sender has not sent any weather packets the latest 10 day(s).
| Time | Temp. | Humidity | Pressure | Rain* | Wind** | Luminosity | Snow |
|---|---|---|---|---|---|---|---|
| 1788122924 | 38.89° C | 29% | 1012.9 hPa | 0 mm | - | 559 W/m² | - |
| 1788122623 | 38.89° C | 29% | 1012.8 hPa | 0 mm | - | 688 W/m² | - |
| 1788122319 | 38.33° C | 31% | 1013.3 hPa | 0 mm | - | 654 W/m² | - |
| 1788122016 | 38.89° C | 30% | 1013.5 hPa | 0 mm | - | 690 W/m² | - |
| 1788121714 | 38.89° C | 30% | 1013.3 hPa | 0 mm | - | 548 W/m² | - |
| 1788121410 | 39.44° C | 30% | 1013.5 hPa | 0 mm | - | 521 W/m² | - |
| 1788121105 | 38.89° C | 31% | 1013.4 hPa | 0 mm | - | 723 W/m² | - |
| 1788120799 | 38.89° C | 30% | 1013.7 hPa | 0 mm | - | 689 W/m² | - |
| 1788120495 | 38.89° C | 30% | 1013.4 hPa | 0 mm | - | 700 W/m² | - |
| 1788120194 | 38.89° C | 30% | 1013.8 hPa | 0 mm | - | 488 W/m² | - |
| 1788119890 | 38.33° C | 30% | 1013.9 hPa | 0 mm | - | 692 W/m² | - |
| 1788119589 | 38.89° C | 32% | 1013.8 hPa | 0 mm | - | 721 W/m² | - |
| 1788119287 | 38.89° C | 31% | 1013.9 hPa | 0 mm | - | 734 W/m² | - |
| 1788118987 | 39.44° C | 31% | 1014.1 hPa | 0 mm | - | 718 W/m² | - |
| 1788118682 | 38.89° C | 30% | 1014.1 hPa | 0 mm | - | 731 W/m² | - |
| 1788118376 | 38.33° C | 32% | 1014.2 hPa | 0 mm | - | 719 W/m² | - |
| 1788118072 | 38.33° C | 33% | 1014.1 hPa | 0 mm | - | 705 W/m² | - |
| 1788117772 | 38.33° C | 34% | 1014.1 hPa | 0 mm | - | 711 W/m² | - |
| 1788117468 | 38.33° C | 33% | 1014.3 hPa | 0 mm | - | 724 W/m² | - |
| 1788117167 | 37.78° C | 33% | 1014.3 hPa | 0 mm | - | 704 W/m² | - |
| 1788116864 | 38.33° C | 32% | 1014.3 hPa | 0 mm | - | 134 W/m² | - |
| 1788116564 | 38.89° C | 32% | 1014.5 hPa | 0 mm | - | 656 W/m² | - |
| 1788116262 | 37.78° C | 33% | 1014.3 hPa | 0 mm | - | 680 W/m² | - |
| 1788115958 | 36.67° C | 34% | 1014.6 hPa | 0 mm | - | 718 W/m² | - |
| 1788115657 | 37.22° C | 34% | 1014.6 hPa | 0 mm | - | 186 W/m² | - |
* Rain latest hour (hover to see other rain measurements)
** Current wind speed in m/s (hover to see current wind gust speed)